TimeEDT,TemperatureF,Dew PointF,Humidity,Sea Level PressureIn,VisibilityMPH,Wind Direction,Wind SpeedMPH,Gust SpeedMPH,PrecipitationIn,Events,Conditions,WindDirDegrees,DateUTC
12:15 AM,57.2,50.0,77,30.30,10.0,NE,5.8,-,N/A,,Clear,50,2012-10-13 04:15:00
12:35 AM,57.2,50.0,77,30.30,10.0,NE,5.8,-,N/A,,Clear,50,2012-10-13 04:35:00
12:55 AM,57.2,50.0,77,30.30,10.0,NE,5.8,-,N/A,,Clear,40,2012-10-13 04:55:00
1:55 AM,55.4,50.0,82,30.31,10.0,NE,3.5,-,N/A,,Clear,40,2012-10-13 05:55:00
2:15 AM,53.6,50.0,88,30.31,10.0,NE,4.6,-,N/A,,Clear,50,2012-10-13 06:15:00
2:35 AM,53.6,50.0,88,30.32,10.0,NE,5.8,-,N/A,,Clear,50,2012-10-13 06:35:00
2:55 AM,53.6,50.0,88,30.31,10.0,ENE,6.9,-,N/A,,Clear,60,2012-10-13 06:55:00
3:15 AM,53.6,48.2,82,30.31,10.0,NE,6.9,-,N/A,,Clear,50,2012-10-13 07:15:00
3:35 AM,53.6,48.2,82,30.31,10.0,NE,10.4,17.3,N/A,,Clear,50,2012-10-13 07:35:00
3:55 AM,53.6,48.2,82,30.31,10.0,NE,6.9,-,N/A,,Clear,40,2012-10-13 07:55:00
4:15 AM,53.6,48.2,82,30.32,10.0,NE,10.4,-,N/A,,Clear,50,2012-10-13 08:15:00
4:35 AM,53.6,48.2,82,30.32,10.0,NE,9.2,-,N/A,,Clear,40,2012-10-13 08:35:00
4:55 AM,51.8,48.2,88,30.33,10.0,NE,4.6,-,N/A,,Clear,50,2012-10-13 08:55:00
5:15 AM,51.8,48.2,88,30.34,10.0,NNE,4.6,-,N/A,,Clear,30,2012-10-13 09:15:00
5:35 AM,51.8,48.2,88,30.35,10.0,NNE,3.5,-,N/A,,Clear,20,2012-10-13 09:35:00
5:55 AM,51.8,46.4,82,30.36,10.0,North,3.5,-,N/A,,Clear,360,2012-10-13 09:55:00
6:15 AM,50.0,46.4,87,30.37,10.0,Calm,Calm,-,N/A,,Clear,0,2012-10-13 10:15:00
6:35 AM,50.0,46.4,87,30.37,10.0,NNE,3.5,-,N/A,,Clear,20,2012-10-13 10:35:00
6:55 AM,50.0,46.4,87,30.38,10.0,Calm,Calm,-,N/A,,Clear,0,2012-10-13 10:55:00
7:15 AM,50.0,46.4,87,30.38,10.0,Calm,Calm,-,N/A,,Clear,0,2012-10-13 11:15:00
7:35 AM,50.0,46.4,87,30.39,10.0,NNE,3.5,-,N/A,,Clear,30,2012-10-13 11:35:00
7:55 AM,50.0,46.4,87,30.39,10.0,North,4.6,-,N/A,,Clear,10,2012-10-13 11:55:00
8:15 AM,50.0,46.4,87,30.40,10.0,NNE,3.5,-,N/A,,Clear,30,2012-10-13 12:15:00
8:35 AM,51.8,46.4,82,30.41,10.0,NE,5.8,-,N/A,,Clear,40,2012-10-13 12:35:00
8:55 AM,51.8,44.6,76,30.41,10.0,NE,8.1,-,N/A,,Clear,40,2012-10-13 12:55:00
9:15 AM,53.6,44.6,72,30.41,10.0,NE,8.1,-,N/A,,Clear,40,2012-10-13 13:15:00
9:55 AM,57.2,46.4,67,30.42,10.0,NE,8.1,-,N/A,,Clear,40,2012-10-13 13:55:00
10:35 AM,60.8,46.4,59,30.42,10.0,NE,10.4,-,N/A,,Clear,40,2012-10-13 14:35:00
10:55 AM,60.8,46.4,59,30.42,10.0,ENE,11.5,-,N/A,,Clear,70,2012-10-13 14:55:00
11:15 AM,62.6,46.4,55,30.42,10.0,NNE,8.1,-,N/A,,Clear,30,2012-10-13 15:15:00
11:35 AM,62.6,48.2,59,30.42,10.0,NE,9.2,-,N/A,,Clear,50,2012-10-13 15:35:00
11:55 AM,64.4,48.2,56,30.42,10.0,NE,8.1,-,N/A,,Clear,40,2012-10-13 15:55:00
12:15 PM,64.4,48.2,56,30.41,10.0,NNE,6.9,17.3,N/A,,Clear,30,2012-10-13 16:15:00
12:35 PM,66.2,48.2,52,30.41,10.0,NE,9.2,16.1,N/A,,Clear,40,2012-10-13 16:35:00
12:55 PM,66.2,48.2,52,30.39,10.0,NE,8.1,17.3,N/A,,Clear,40,2012-10-13 16:55:00
1:15 PM,68.0,48.2,49,30.39,10.0,NE,8.1,16.1,N/A,,Clear,40,2012-10-13 17:15:00
1:35 PM,68.0,48.2,49,30.38,10.0,NNE,6.9,-,N/A,,Clear,30,2012-10-13 17:35:00
1:55 PM,69.8,46.4,43,30.38,10.0,NE,10.4,17.3,N/A,,Clear,50,2012-10-13 17:55:00
2:15 PM,69.8,46.4,43,30.37,10.0,ENE,10.4,-,N/A,,Clear,60,2012-10-13 18:15:00
2:35 PM,69.8,46.4,43,30.36,10.0,East,4.6,-,N/A,,Clear,90,2012-10-13 18:35:00
2:55 PM,69.8,48.2,46,30.35,10.0,NE,10.4,-,N/A,,Clear,40,2012-10-13 18:55:00
3:15 PM,69.8,48.2,46,30.34,10.0,ENE,9.2,-,N/A,,Clear,70,2012-10-13 19:15:00
3:35 PM,69.8,50.0,49,30.34,10.0,NNE,5.8,-,N/A,,Clear,30,2012-10-13 19:35:00
4:15 PM,69.8,48.2,46,30.32,10.0,NNE,4.6,-,N/A,,Clear,30,2012-10-13 20:15:00
4:35 PM,71.6,48.2,43,30.33,10.0,East,3.5,-,N/A,,Clear,90,2012-10-13 20:35:00
4:55 PM,69.8,48.2,46,30.32,10.0,East,4.6,-,N/A,,Clear,90,2012-10-13 20:55:00
5:15 PM,69.8,50.0,49,30.33,10.0,NE,6.9,-,N/A,,Clear,50,2012-10-13 21:15:00
5:35 PM,69.8,50.0,49,30.33,10.0,NNE,3.5,-,N/A,,Clear,20,2012-10-13 21:35:00
5:55 PM,68.0,50.0,52,30.33,10.0,NE,3.5,-,N/A,,Clear,40,2012-10-13 21:55:00
6:15 PM,64.4,51.8,64,30.34,10.0,Calm,Calm,-,N/A,,Clear,0,2012-10-13 22:15:00
6:35 PM,64.4,51.8,64,30.34,10.0,Calm,Calm,-,N/A,,Clear,0,2012-10-13 22:35:00
6:55 PM,62.6,53.6,72,30.34,10.0,Calm,Calm,-,N/A,,Clear,0,2012-10-13 22:55:00
7:15 PM,60.8,53.6,77,30.34,10.0,Calm,Calm,-,N/A,,Clear,0,2012-10-13 23:15:00
7:35 PM,59.0,53.6,82,30.34,10.0,Calm,Calm,-,N/A,,Clear,0,2012-10-13 23:35:00
7:55 PM,57.2,53.6,88,30.34,10.0,Calm,Calm,-,N/A,,Clear,0,2012-10-13 23:55:00
8:35 PM,57.2,53.6,88,30.34,10.0,Calm,Calm,-,N/A,,Clear,0,2012-10-14 00:35:00
8:55 PM,59.0,53.6,82,30.34,10.0,Calm,Calm,-,N/A,,Clear,0,2012-10-14 00:55:00
9:35 PM,55.4,53.6,94,30.35,10.0,Calm,Calm,-,N/A,,Clear,0,2012-10-14 01:35:00
10:15 PM,53.6,51.8,94,30.34,10.0,Calm,Calm,-,N/A,,Clear,0,2012-10-14 02:15:00
10:35 PM,53.6,51.8,94,30.34,10.0,Calm,Calm,-,N/A,,Clear,0,2012-10-14 02:35:00
10:55 PM,53.6,51.8,94,30.34,10.0,Calm,Calm,-,N/A,,Clear,0,2012-10-14 02:55:00
11:15 PM,53.6,51.8,94,30.34,10.0,Calm,Calm,-,N/A,,Clear,0,2012-10-14 03:15:00